Location: Casco Volunteer Fire Department
(44.5576°N, 87.6146°W)
Time: 03:42:05
(UTC+00:00)

BREEZE-M DEB (TANK) - Pass Details

Date: 22 January 2026
Orbit: 304 x 12634 km, 49.7° (Epoch: 11 February)

Event Time Altitude Azimuth Distance (km) Brightness Sun altitude
Rises 23:41:38 0° 255° (WSW) 2,020 8.1 -10.0°
Reaches altitude 10° 23:43:05 10° 260° (W) 1,294 6.3 -10.3°
Maximum altitude 23:45:28 62° 342° (NNW) 530 2.7 -10.7°
Enters shadow 23:49:23 14° 63° (ENE) 2,149 5.2 -11.3°
